Weather History for Fairbanks Eiels, AK

Change the Weather History Date:

Wednesday, October 2, 2013

  Actual Average Record
Temperature  
Mean Temperature 37 °F -  
Max Temperature 45 °F 43 °F 75 °F (2003)
Min Temperature 30 °F 27 °F 8 °F (1974)
Degree Days  
Heating Degree Days 28    
Moisture  
Dew Point 33 °F    
Average Humidity 86    
Maximum Humidity 95    
Minimum Humidity 61    
Precipitation  
Precipitation 0.00 in - - ()
Sea Level Pressure  
Sea Level Pressure 29.90 in    
Wind  
Wind Speed 1 mph (NNE)    
Max Wind Speed 8 mph    
Max Gust Speed -    
Visibility 10 miles    
Events      
Averages and records for this station are not official NWS values.
T = Trace of Precipitation, MM = Missing Value Source: NWS Daily Summary

Daily Weather History Graph

Daily Weather History Graph

Search for Another Location

Airport:

Trip Planner

Search our weather history database for the weather conditions in past years. The results will help you decide how hot, cold, wet, or windy it might be!

Date:

Astronomy

Oct. 02, 2013 Rise Set
Actual Time 8:02 AM AKDT 7:11 PM AKDT
Civil Twilight 7:13 AM AKDT 7:59 PM AKDT
Nautical Twilight 6:16 AM AKDT 8:56 PM AKDT
Astronomical Twilight 5:14 AM AKDT 9:57 PM AKDT
Moon 5:08 AM AKDT (10/2) 6:17 PM AKDT (10/2)
Length of Visible Light 12h 46m
Length of Day
11h 09m
Waning Crescent, 5% of the Moon is Illuminated
Oct 2
Waning Crescent
Oct 4
New
Oct 11
First Quarter
Oct 18
Full
Oct 26
Last Quarter

Hourly Weather History & Observations

Time (AKDT) Temp. Windchill Dew Point Humidity Pressure Visibility Wind Dir Wind Speed Gust Speed Precip Events Conditions
12:58 AM 33.8 °F - 31.8 °F 92% 29.94 in 10.0 mi Calm Calm - N/A   Overcast
1:13 AM 33.8 °F - 32.0 °F 93% 29.91 in 10.0 mi East 1.2 mph - N/A   Overcast
1:58 AM 33.8 °F - 32.2 °F 94% 29.94 in 10.0 mi Calm Calm - N/A   Overcast
2:58 AM 33.8 °F - 32.2 °F 94% 29.94 in 10.0 mi Calm Calm - N/A   Overcast
3:58 AM 34.0 °F - 32.4 °F 94% 29.94 in 10.0 mi Calm Calm - N/A   Overcast
4:28 AM 33.8 °F - 32.0 °F 93% 29.91 in 10.0 mi Calm Calm - N/A   Overcast
4:43 AM 33.8 °F - 32.0 °F 93% 29.91 in 10.0 mi Calm Calm - N/A   Overcast
4:58 AM 34.0 °F - 32.2 °F 93% 29.93 in 10.0 mi Calm Calm - N/A   Overcast
5:43 AM 33.8 °F - 32.0 °F 93% 29.90 in 10.0 mi Calm Calm - N/A   Overcast
5:58 AM 34.0 °F - 32.4 °F 94% 29.93 in 10.0 mi North 1.2 mph - N/A   Overcast
6:13 AM 33.8 °F 29.6 °F 32.0 °F 93% 29.89 in 10.0 mi North 4.6 mph - N/A   Overcast
6:58 AM 34.5 °F 31.6 °F 32.2 °F 91% 29.93 in 10.0 mi Variable 3.5 mph - N/A   Overcast
7:58 AM 34.3 °F - 32.0 °F 91% 29.93 in 10.0 mi Calm Calm - N/A   Overcast
8:58 AM 34.9 °F 28.3 °F 32.5 °F 91% 29.92 in 10.0 mi North 8.1 mph - N/A   Mostly Cloudy
9:58 AM 36.7 °F - 32.7 °F 86% 29.92 in 10.0 mi North 1.2 mph - N/A   Mostly Cloudy
10:43 AM 37.4 °F - 32.0 °F 81% 29.90 in 10.0 mi Calm Calm - N/A   Mostly Cloudy
11:55 AM 40.1 °F - 34.0 °F 79% 29.91 in 10.0 mi Calm Calm - N/A   Mostly Cloudy
12:55 PM 41.2 °F - 33.1 °F 73% 29.91 in 10.0 mi Calm Calm - N/A   Mostly Cloudy
1:55 PM 43.7 °F 42.1 °F 33.6 °F 68% 29.90 in 10.0 mi North 3.5 mph - N/A   Mostly Cloudy
1:56 PM 44.6 °F - 32.0 °F 61% 29.88 in 10.0 mi North 2.3 mph - N/A   Clear
2:58 PM 44.2 °F - 33.3 °F 65% 29.90 in 10.0 mi Calm Calm - N/A   Mostly Cloudy
3:58 PM 44.6 °F - 34.5 °F 68% 29.88 in 10.0 mi Calm Calm - N/A   Mostly Cloudy
4:58 PM 44.1 °F - 34.7 °F 70% 29.87 in 10.0 mi Calm Calm - N/A   Mostly Cloudy
5:58 PM 42.4 °F - 35.8 °F 77% 29.87 in 10.0 mi Calm Calm - N/A   Mostly Cloudy
6:58 PM 39.0 °F - 35.4 °F 87% 29.87 in 10.0 mi Calm Calm - N/A   Clear
7:58 PM 36.7 °F - 34.3 °F 91% 29.87 in 10.0 mi Calm Calm - N/A   Clear
8:58 PM 35.8 °F - 33.8 °F 92% 29.87 in 10.0 mi Calm Calm - N/A   Clear
9:58 PM 33.6 °F - 32.2 °F 94% 29.86 in 10.0 mi Calm Calm - N/A   Mostly Cloudy
10:58 PM 30.7 °F - 29.5 °F 95% 29.83 in 10.0 mi Calm Calm - N/A   Scattered Clouds
11:58 PM 30.2 °F - 28.8 °F 94% 29.83 in 10.0 mi Variable 1.2 mph - N/A   Mostly Cloudy